Location: Newark
(36.0797°N, 3.9744°E)
Time: 00:52:45
(UTC+00:00)

Altair - Visible Passes

Search period start: 06 December 2019 00:00
Search period end: 16 December 2019 00:00
Orbit: 1502 x 1682 km, 47.2° (Epoch: 05 December)

Date Brightness Start Highest point End Pass type
(mag) Time Alt. Az. Time Alt. Az. Time Alt. Az.
06 Dec 7.6 03:20:00 62° NE 03:20:00 62° NE 03:28:39 10° ESE visible
06 Dec 7.7 05:18:03 21° WNW 05:24:01 50° SW 05:32:53 10° SSE visible
06 Dec 9.2 18:30:56 10° SE 18:32:00 11° SE 18:32:00 11° SE visible
06 Dec 9.2 20:27:57 10° SSW 20:30:04 18° SSW 20:30:04 18° SSW visible
07 Dec 8.0 02:56:31 49° ENE 02:56:31 49° ENE 03:03:22 10° ESE visible
07 Dec 7.6 04:54:33 31° WNW 04:58:55 54° SW 05:07:53 10° SSE visible
07 Dec 8.8 20:02:56 10° SSW 20:06:46 26° SSW 20:06:46 26° SSW visible
08 Dec 8.5 02:33:03 35° E 02:33:03 35° E 02:38:05 10° E visible
08 Dec 7.5 04:31:06 45° W 04:33:49 59° SW 04:42:52 10° SSE visible
08 Dec 8.4 19:37:57 10° SSW 19:43:29 34° S 19:43:29 34° S visible
09 Dec 9.0 02:09:38 24° E 02:09:38 24° E 02:12:47 10° E visible
09 Dec 7.3 04:07:41 60° WSW 04:08:42 64° SW 04:17:49 10° SE visible
09 Dec 8.9 06:07:19 10° W 06:12:05 15° WSW 06:16:54 10° SSW visible
09 Dec 8.1 19:13:00 10° SSW 19:20:11 39° SSE 19:20:11 39° SSE visible
09 Dec 9.4 21:16:42 10° WSW 21:18:15 16° WSW 21:18:15 16° WSW visible
10 Dec 9.5 01:46:16 15° E 01:46:16 15° E 01:47:29 10° E visible
10 Dec 7.4 03:44:19 67° SSW 03:44:19 67° SSW 03:52:45 10° SE visible
10 Dec 8.8 05:42:22 12° W 05:47:03 17° SW 05:52:36 10° SSW visible
10 Dec 8.0 18:48:05 10° SSW 18:56:48 38° SE 18:56:52 38° SE visible
10 Dec 9.0 20:51:26 10° WSW 20:54:55 26° WSW 20:54:55 26° WSW visible
11 Dec 7.8 03:20:58 53° SSE 03:20:58 53° SSE 03:27:40 10° SE visible
11 Dec 8.6 05:19:01 17° WSW 05:22:01 20° SW 05:28:10 10° SSW visible
11 Dec 8.1 18:23:12 10° SSW 18:31:42 35° SE 18:33:31 33° ESE visible
11 Dec 8.4 20:26:12 10° WSW 20:31:34 39° WSW 20:31:34 39° WSW visible
12 Dec 8.4 02:57:38 37° SE 02:57:38 37° SE 03:02:33 10° SE visible
12 Dec 8.5 04:55:42 22° WSW 04:56:59 22° SW 05:03:37 10° S visible
12 Dec 8.3 17:58:22 10° S 18:06:37 32° SE 18:10:09 25° E visible
12 Dec 7.9 20:00:57 10° WSW 20:08:12 56° WSW 20:08:12 56° WSW visible
13 Dec 8.9 02:34:20 24° SE 02:34:20 24° SE 02:37:25 10° SE visible
13 Dec 8.4 04:32:23 25° SW 04:32:23 25° SW 04:38:59 10° S visible
13 Dec 8.4 17:33:34 10° S 17:41:32 29° SE 17:46:44 18° E visible
13 Dec 7.4 19:35:44 10° SW 19:44:47 79° SW 19:44:47 79° SW visible
13 Dec 9.6 21:41:59 10° W 21:42:50 13° W 21:42:50 13° W visible
14 Dec 9.4 02:11:02 15° SE 02:11:02 15° SE 02:12:16 10° SE visible
14 Dec 8.5 04:09:06 25° SSW 04:09:06 25° SSW 04:14:17 10° S visible
14 Dec 8.6 17:08:50 10° S 17:16:27 26° SE 17:23:17 12° ENE visible
14 Dec 7.3 19:10:32 10° SW 19:20:20 85° SE 19:21:20 75° ENE visible
14 Dec 9.2 21:16:38 10° W 21:19:22 21° W 21:19:22 21° W visible
15 Dec 8.7 03:45:48 23° SSW 03:45:48 23° SSW 03:49:33 10° S visible
15 Dec 8.7 16:44:09 10° S 16:51:22 23° SE 16:58:23 10° E visible
15 Dec 7.4 18:45:21 10° SW 18:55:10 80° SE 18:57:50 54° ENE visible
15 Dec 8.8 20:51:15 10° W 20:55:52 30° WNW 20:55:52 30° WNW visible
